742  
ASUS41 KBOX 172010  
RWRBOX  
 
REGIONAL WEATHER ROUNDUP  
NATIONAL WEATHER SERVICE BOSTON/NORTON MA  
300 PM EST SUN FEB 17 2019  
 
NOTE: "FAIR" INDICATES FEW OR NO CLOUDS BELOW 12,000 FEET WITH NO  
SIGNIFICANT WEATHER AND/OR S TO VISIBILITY
.  
 
MAZALL-172100-  
EASTERN MASSACHUSETTS  
 
CITY SKY/WX TMP DP RH WIND PRES REMARKS
 
BOSTON FAIR 33 12 41 E6 30.10S WCI 28  
BEVERLY FAIR 31 14 49 SE12 30.10R WCI 22  
LAWRENCE FAIR 34 6 31 W8 30.10R WCI 27  
BEDFORD FAIR 36 9 32 VRB5 30.07F  
BLUE HILL N/A 36 7 29 S10 30.05S WCI 28  
NORWOOD FAIR 40 7 25 VRB5 30.09S  
MARSHFIELD FAIR 32 14 47 E8 30.11F WCI 25  
PLYMOUTH FAIR 33 14 45 E12 30.10R WCI 24  
TAUNTON FAIR 39 10 30 S7 30.09R  
NEW BEDFORD FAIR 35 16 45 S10 30.09S WCI 27  

 
 
MAZALL-172100-  
CAPE COD AND THE ISLANDS  
 
CITY SKY/WX TMP DP RH WIND PRES REMARKS
 
FALMOUTH FAIR 34 9 35 SW10 30.11F WCI 26  
HYANNIS FAIR 34 14 43 N5 30.11R WCI 30  
CHATHAM FAIR 34 19 54 CALM 30.14R  
PROVINCETOWN FAIR 29 20 69 N6 30.13R WCI 23  
NANTUCKET CLOUDY 33 19 56 W10 30.13R WCI 25  
MARTHAS VNYRD FAIR 34 15 46 SW12 30.12R WCI 25  

 
 
MAZALL-172100-  
CENTRAL AND WESTERN MASSACHUSETTS  
 
CITY SKY/WX TMP DP RH WIND PRES REMARKS
 
WORCESTER FAIR 32 9 38 SW8 30.02F WCI 25  
FITCHBURG FAIR 35 5 28 W8 30.06F WCI 29  
ORANGE FAIR 35 6 29 CALM 30.05F  
SPRINGFIELD MOSUNNY 37 9 31 CALM 30.04F  
WESTFIELD FAIR 36 10 34 SE7 30.04F WCI 30  
NORTH ADAMS FAIR 31 8 38 W8 30.05F WCI 23  
PITTSFIELD FAIR 31 11 43 CALM 29.99F  

 
 
RIZALL-172100-  
RHODE ISLAND  
 
CITY SKY/WX TMP DP RH WIND PRES REMARKS
 
PROVIDENCE PTSUNNY 35 18 49 S16 30.08F WCI 25  
NEWPORT FAIR 33 17 51 VRB7 30.09F WCI 27  
BLOCK ISLAND FAIR 32 15 49 SW6 N/A WCI 26  
SMITHFIELD FAIR 38 9 30 W8 30.05F  
WESTERLY FAIR 35 19 52 SW9 30.09F WCI 28  

 
 
CTZALL-172100-  
CONNECTICUT  
 
CITY SKY/WX TMP DP RH WIND PRES REMARKS
 
BRADLEY INTL FAIR 37 13 37 SE10 30.05F WCI 30  
HARTFORD FAIR 36 9 32 SE7 30.07F WCI 30  
BRIDGEPORT FAIR 34 15 46 S8 30.08F WCI 27  
DANBURY FAIR 35 10 35 CALM 30.04F  
GROTON FAIR 34 17 50 SW10 30.10F WCI 26  
NEW HAVEN FAIR 34 18 52 S9 30.08F WCI 27  
CHESTER FAIR 36 14 41 S9 30.06F WCI 29  
MERIDEN FAIR 37 14 38 S8 30.06F WCI 31  
WILLIMANTIC FAIR 37 11 34 W5 30.07F  
OXFORD FAIR 34 9 35 VRB3 30.03F  

 
 
MEZ002-015-021-024-NHZ003-005-008-011-012-014-VTZ005-008-172100-  
NORTHERN NEW ENGLAND  
 
CITY SKY/WX TMP DP RH WIND PRES REMARKS
 
PORTLAND ME FAIR 32 4 30 VRB7 30.08R WCI 26  
BANGOR ME FAIR 27 2 34 NW9 30.04F WCI 18  
CONCORD NH FAIR 31 4 31 CALM 30.08R  
MANCHESTER NH PTSUNNY 33 1 25 CALM 30.07R  
NASHUA NH FAIR 36 4 26 SE3 30.08S  
PORTSMOUTH NH MOSUNNY 29 14 53 SE10 30.09 WCI 20  
JAFFREY NH FAIR 31 4 31 W7 30.03S WCI 24  
KEENE NH MIX PCPN 32 4 30 CALM 30.06F  
BURLINGTON VT PTSUNNY 19 4 51 NW7 30.15R WCI 10  
MT. WASHINGTON PTSUNNY 10 -11 37 W24 N/A WCI -10  

 
 
NYZ052-076-172100-  
EASTERN NEW YORK  
 
CITY SKY/WX TMP DP RH WIND PRES REMARKS
 
ALBANY PTSUNNY 29 10 45 NE12 30.08F WCI 19  
NEW YORK CITY PTSUNNY 36 15 42 S9 30.08F WCI 29  

 
 
ANZALL-172100-  
MARINE OBSERVATIONS  
 
STATION/POSITION TIME TEMP WIND PRES VSBY WAVE
 
AIR SEA DIR/SP/G HT/PER  
(UTC) (F) (DEG/KT/KT) (MB) (MI) (FT/S)  
BOSTON BUOY 1950 28 40 80/ 2/ 4 1020.0R 2/ 8  
BUZZARDS BAY 1900 30 220/ 12/ 13 1021.3R  
NANTUCKET SOUND 1950 31 35 260/ 4/ 6 1020.4R 1  
MASS BAY-STELLWA 1904 29 39 140/ 2/ 4 1018.4R 1 7/8 2/ 8  
ISLE OF SHOALS 1900 26 120/ 4/ 5 1018.0F  
S OF BLOCK IS 2000 43 N/A 3/ 8  

 
   
.....................KEY......................
 
 
SKY/WX - SKY CONDITION/PRESENT WEATHER  
TMP - TEMPERATURE IN FAHRENHEIT  
DWPT - DEWPOINT IN FAHRENHEIT  
RH - RELATIVE HUMIDITY IN PERCENT  
WIND - DIRECTION AND SPEED IN MPH  
PRES - MEAN SEA LEVEL PRESSURE IN INCHES OF HG  
WCI - WIND CHILL INDEX  
VSB - VISIBILITY IN MILES  
HX - HEAT INDEX  
TC - TEMPERATURE IN CELSIUS  
VRB - VARIABLE WIND DIRECTION  
N/A - NOT AVAILABLE  
 
 
CLICK HERE TO GO TO PREVIOUS BULLETINS.

The Nexlab MA Page
The Nexlab RI Page
The Nexlab NH Page
The Nexlab CT Page Main Text Page